Date,TemperatureHighF,TemperatureAvgF,TemperatureLowF,DewpointHighF,DewpointAvgF,DewpointLowF,HumidityHigh,HumidityAvg,HumidityLow,PressureMaxIn,PressureMinIn,WindSpeedMaxMPH,WindSpeedAvgMPH,GustSpeedMaxMPH,PrecipitationSumIn
2012-1-1,55.0,43.3,34.0,43.0,26.4,16.0,80,53,34,30.40,29.74,0,0,0,0.00
2012-1-2,34.0,30.2,28.0,18.0,14.4,10.0,61,52,39,30.45,30.38,0,0,0,0.00
2012-1-4,50.0,41.9,35.0,33.0,27.1,18.0,75,56,48,30.24,30.09,0,0,0,0.00
2012-1-5,65.0,49.3,32.0,35.0,30.8,25.0,75,51,32,30.19,29.91,0,0,0,0.00
2012-1-6,69.0,54.8,42.0,35.0,32.9,30.0,71,45,28,29.96,29.78,0,0,0,0.00
2012-1-7,51.0,42.2,32.0,34.0,28.4,24.0,80,59,41,30.28,29.96,0,0,0,0.00
2012-1-8,45.0,36.9,24.0,34.0,29.1,20.0,89,74,60,30.37,30.27,0,0,0,0.00
2012-1-9,50.0,35.5,24.0,36.0,26.6,21.0,91,72,42,30.31,30.15,0,0,0,0.00
2012-1-10,56.0,38.8,26.0,35.0,27.4,22.0,88,67,36,30.16,29.78,0,0,0,0.00
2012-1-11,55.0,43.6,33.0,38.0,34.0,27.0,89,70,43,29.78,29.57,0,0,0,0.00
2012-1-12,39.0,21.1,16.0,32.0,15.6,9.0,87,79,73,29.95,29.70,0,0,0,0.00
2012-1-13,22.0,16.7,9.0,14.0,9.7,5.0,85,74,65,30.19,29.95,0,0,0,0.00
2012-1-14,38.0,26.2,15.0,23.0,17.2,11.0,86,69,47,30.33,30.01,0,0,0,0.00
2012-1-15,46.0,34.4,21.0,32.0,24.9,17.0,92,70,51,30.40,30.06,0,0,0,0.00
2012-1-16,65.0,55.2,43.0,56.0,45.1,32.0,79,69,61,30.06,29.73,0,0,0,0.00
2012-1-17,62.0,37.8,23.0,56.0,31.6,14.0,92,78,67,30.40,29.65,20,8,0,0.00
2012-1-18,34.0,25.0,12.0,19.0,14.1,8.0,86,64,46,30.41,30.02,0,0,0,0.00
2012-1-19,36.0,28.9,18.0,25.0,18.9,11.0,73,66,60,30.19,29.94,0,0,0,0.00
2012-1-20,29.0,23.1,16.0,24.0,16.4,8.0,88,75,68,30.19,29.90,0,0,0,0.00
2012-1-21,32.0,26.3,21.0,26.0,21.6,17.0,88,82,72,30.27,30.05,13,4,0,0.00
2012-1-22,54.0,38.2,28.0,52.0,36.0,25.0,94,92,89,30.06,29.47,10,0,0,0.00
2012-1-23,55.0,42.4,32.0,51.0,33.2,25.0,89,70,60,30.12,29.46,0,0,0,0.00
2012-1-24,45.0,33.9,23.0,30.0,25.7,19.0,88,73,55,30.36,30.12,0,0,0,0.00
2012-1-25,35.0,33.4,31.0,32.0,29.8,26.0,92,87,80,30.35,30.00,9,2,0,0.00
2012-1-26,40.0,35.7,32.0,38.0,33.5,29.0,93,92,89,30.00,29.75,9,2,0,0.00
2012-1-27,41.0,37.1,32.0,34.0,32.0,28.0,92,82,68,30.09,29.85,9,2,0,0.00
2012-1-28,42.0,36.4,29.0,34.0,24.9,18.0,91,65,38,30.37,30.03,12,4,0,0.00
2012-1-29,47.0,38.9,29.0,24.0,21.7,20.0,73,51,37,30.31,30.22,0,0,0,0.00
2012-1-30,66.0,51.9,37.0,41.0,32.3,24.0,62,48,33,30.23,30.01,0,0,0,0.00
2012-1-31,65.0,58.4,51.0,54.0,43.7,34.0,85,59,48,30.05,29.93,2,0,0,0.00
2012-2-1,59.0,48.9,34.0,52.0,40.6,30.0,94,75,52,30.23,30.04,0,0,0,0.00
2012-2-2,64.0,47.0,29.0,44.0,34.5,26.0,93,66,34,30.37,30.23,0,0,0,0.00
2012-2-3,54.0,47.8,40.0,44.0,38.0,33.0,92,70,53,30.37,30.18,5,0,0,0.00
2012-2-4,47.0,45.3,42.0,45.0,43.3,40.0,94,93,92,30.20,30.04,16,1,0,0.00
2012-2-5,48.0,40.3,30.0,41.0,35.9,27.0,94,85,61,30.35,30.17,8,0,0,0.00
2012-2-6,46.0,35.1,28.0,38.0,30.5,25.0,93,84,62,30.35,30.23,8,2,0,0.00
2012-2-7,50.0,35.0,26.0,38.0,30.0,23.0,92,83,58,30.40,30.24,11,2,0,0.00
2012-2-8,35.0,33.2,31.0,31.0,29.1,27.0,91,85,75,30.50,30.39,8,3,0,0.00
2012-2-9,40.0,34.7,27.0,30.0,25.9,21.0,85,71,54,30.44,30.21,7,2,0,0.00
2012-2-10,41.0,33.5,23.0,37.0,28.1,15.0,89,81,70,30.34,30.02,18,9,0,0.00
2012-2-11,28.0,23.0,17.0,15.0,9.2,5.0,79,57,39,30.61,30.34,18,13,0,0.00
2012-2-12,37.0,25.2,16.0,13.0,7.8,5.0,61,49,29,30.62,30.32,11,3,0,0.00
2012-2-13,34.0,31.0,27.0,29.0,22.0,11.0,90,71,44,30.32,29.90,15,6,0,0.00
2012-2-14,40.0,34.9,31.0,34.0,31.2,27.0,91,87,76,30.07,29.88,7,2,0,0.00
2012-2-15,46.0,41.4,36.0,44.0,38.4,32.0,93,89,85,30.10,29.96,10,4,0,0.00
2012-2-16,47.0,41.2,29.0,43.0,37.0,26.0,94,86,64,30.29,30.00,9,1,16,0.00
2012-2-17,56.0,40.4,27.0,40.0,29.5,24.0,93,69,38,30.29,30.12,17,1,21,0.00
2012-2-18,47.0,39.7,33.0,34.0,29.4,26.0,79,67,51,30.26,30.14,11,4,20,0.00
2012-2-19,44.0,34.0,27.0,28.0,24.3,21.0,83,69,44,30.21,30.14,11,3,15,0.00
2012-2-20,51.0,38.6,22.0,31.0,25.3,18.0,88,61,37,30.28,29.84,18,7,29,0.03
2012-2-21,54.0,46.6,39.0,40.0,34.4,27.0,80,64,42,29.95,29.72,19,5,31,0.03
2012-2-22,63.0,49.1,34.0,36.0,30.2,23.0,65,49,34,29.85,29.50,0,0,5,0.00
2012-2-23,67.0,53.7,42.0,50.0,41.7,31.0,83,65,48,29.58,29.27,11,0,18,0.03
2012-2-24,49.0,40.5,36.0,36.0,26.9,21.0,76,59,44,30.20,29.58,21,7,33,0.00
2012-2-25,41.0,34.6,28.0,24.0,18.1,15.0,67,51,36,30.40,30.19,18,5,28,0.00
2012-2-26,64.0,47.6,32.0,32.0,25.6,18.0,61,44,27,30.28,30.05,13,1,21,0.00
2012-2-27,53.0,45.7,36.0,33.0,26.6,20.0,68,48,32,30.51,30.19,6,0,13,0.00
2012-2-28,60.0,47.9,35.0,55.0,33.7,22.0,85,58,45,30.47,29.73,4,0,12,0.00
2012-2-29,66.0,59.6,47.0,60.0,39.3,27.0,87,51,23,29.90,29.63,11,1,20,0.14
2012-3-1,66.0,52.2,33.0,38.0,33.4,26.0,79,50,32,29.98,29.62,0,0,10,0.14
2012-3-2,55.0,47.0,36.0,51.0,38.8,30.0,88,74,51,29.89,29.39,17,1,32,0.05
2012-3-3,45.0,38.5,33.0,31.0,24.9,21.0,81,59,42,30.00,29.88,0,0,0,0.04
2012-3-4,45.0,36.3,23.0,33.0,25.8,18.0,85,67,46,30.12,29.90,0,0,1,0.01
2012-3-5,50.0,39.7,27.0,30.0,24.9,21.0,84,57,35,30.48,30.13,12,1,17,0.01
2012-3-6,73.0,58.9,43.0,42.0,33.3,25.0,49,39,25,30.24,29.99,0,0,1,0.00
2012-3-7,72.0,65.1,59.0,54.0,47.7,37.0,62,54,42,30.09,29.97,0,0,0,0.00
2012-3-8,67.0,45.1,30.0,57.0,36.3,25.0,89,72,53,30.48,29.96,20,6,34,0.21
2012-3-9,56.0,41.0,28.0,31.0,24.2,19.0,85,56,27,30.59,30.47,12,1,17,0.01
2012-3-10,65.0,49.7,33.0,31.0,26.0,-99.9,63,43,27,30.54,30.30,0,0,0,0.00
2012-3-11,60.0,50.0,38.0,53.0,39.3,27.0,91,68,47,30.32,30.01,15,3,26,0.27
2012-3-12,82.0,66.9,56.0,57.0,51.7,45.0,92,64,29,30.01,29.83,13,2,26,0.16
2012-3-13,82.0,65.3,47.0,58.0,49.8,43.0,90,61,29,30.15,30.02,10,1,17,0.00
2012-3-14,86.0,72.5,59.0,65.0,60.1,55.0,88,67,45,30.11,29.98,10,3,15,0.00
2012-3-15,82.0,70.1,61.0,66.0,60.0,56.0,89,71,54,30.20,30.04,8,2,0,0.00
2012-3-16,76.0,64.5,56.0,64.0,58.3,53.0,92,81,61,30.16,30.04,1,0,0,0.00
2012-3-17,80.0,66.3,59.0,66.0,61.0,56.0,94,84,59,30.11,30.02,5,0,0,0.00
2012-3-18,80.0,68.0,58.0,67.0,59.6,55.0,92,76,50,30.11,29.98,0,0,10,0.00
2012-3-19,82.0,72.8,66.0,65.0,61.1,56.0,84,68,51,30.03,29.85,0,0,0,0.00
2012-3-20,82.0,73.1,64.0,59.0,55.3,-99.9,78,56,38,29.99,29.90,0,0,0,0.00
2012-3-21,81.0,73.1,67.0,59.0,57.3,56.0,69,58,44,30.06,29.95,0,0,0,0.00
2012-3-22,73.0,59.7,54.0,61.0,53.4,-99.9,91,82,59,30.10,29.96,0,-7,0,0.23
2012-3-23,67.0,56.2,51.0,55.0,51.3,47.0,93,84,53,30.00,29.82,0,0,0,0.25
2012-3-24,75.0,61.2,50.0,58.0,53.3,47.0,92,78,46,29.99,29.86,0,0,0,0.00
2012-3-25,76.0,62.3,51.0,61.0,55.1,49.0,94,79,52,30.11,29.99,0,0,0,0.00
2012-3-26,73.0,61.3,50.0,58.0,51.6,44.0,94,72,55,30.23,30.10,0,0,0,0.00
2012-3-27,83.0,67.3,53.0,57.0,48.8,42.0,68,53,38,30.18,29.93,0,0,0,0.00
2012-3-28,83.0,71.2,57.0,58.0,52.0,43.0,76,53,26,30.08,29.97,0,0,0,0.00
2012-3-29,73.0,64.1,56.0,55.0,50.8,45.0,84,63,43,30.07,29.87,0,0,0,0.00
2012-3-30,84.0,70.5,59.0,64.0,57.3,50.0,83,64,43,29.88,29.75,0,0,0,0.00
2012-3-31,77.0,63.6,49.0,60.0,53.9,45.0,88,72,53,29.97,29.82,0,0,0,0.00
2012-4-1,90.0,74.2,59.0,66.0,59.0,54.0,88,63,30,29.82,29.62,0,0,0,0.00
2012-4-2,91.0,77.5,62.0,67.0,63.3,58.0,92,64,40,29.84,29.65,0,0,0,0.00
2012-4-3,83.0,71.0,59.0,65.0,60.3,55.0,91,71,46,29.92,29.81,0,0,0,0.00
2012-4-4,68.0,62.2,55.0,64.0,57.4,52.0,92,85,73,29.89,29.76,0,0,0,0.00
2012-4-5,62.0,52.8,47.0,55.0,46.6,37.0,93,81,49,30.10,29.77,0,0,0,0.00
2012-4-6,63.0,49.3,36.0,41.0,37.1,32.0,89,65,40,30.29,30.10,0,0,0,0.00
2012-4-7,70.0,55.2,37.0,50.0,42.1,34.0,92,65,36,30.30,30.18,0,0,0,0.00
2012-4-8,70.0,57.5,42.0,50.0,39.2,30.0,90,57,24,30.41,30.22,0,0,0,0.00
2012-4-9,74.0,58.4,42.0,41.0,35.9,29.0,83,49,21,30.23,30.09,0,0,0,0.00
2012-4-10,62.0,53.7,39.0,39.0,29.6,25.0,76,41,29,30.28,30.12,0,0,0,0.00
2012-4-11,60.0,46.1,33.0,34.0,29.2,26.0,80,55,32,30.37,30.19,0,0,0,0.00
2012-4-12,65.0,50.3,31.0,39.0,33.4,28.0,90,57,32,30.35,30.13,0,0,0,0.00
2012-4-13,58.0,52.2,48.0,49.0,43.6,37.0,90,74,46,30.20,30.05,0,0,0,0.99
2012-4-14,79.0,62.4,52.0,68.0,56.8,-99.9,94,85,61,30.11,29.82,0,0,1,1.70
2012-4-15,77.0,70.1,57.0,64.0,60.0,53.0,91,71,61,29.84,29.65,0,0,0,1.05
2012-4-16,69.0,59.5,46.0,53.0,46.9,43.0,88,65,42,30.29,29.71,0,0,0,1.05
2012-4-17,72.0,57.3,42.0,53.0,45.3,40.0,93,68,36,30.40,30.28,0,0,0,0.00
2012-4-18,76.0,62.3,45.0,52.0,47.0,42.0,91,61,36,30.29,30.04,0,0,0,0.00
2012-4-19,80.0,66.5,51.0,52.0,48.1,45.0,84,54,33,30.06,29.80,0,0,0,0.00
2012-4-20,65.0,54.2,48.0,54.0,46.0,40.0,90,75,54,30.07,29.74,0,0,0,0.11
2012-4-21,63.0,51.3,38.0,43.0,39.3,34.0,89,66,41,30.11,30.00,0,0,0,0.02
2012-4-22,58.0,50.9,42.0,48.0,42.5,32.0,90,74,53,30.17,29.93,0,0,0,0.13
2012-4-23,65.0,51.3,32.0,40.0,36.2,29.0,91,60,36,30.17,29.99,0,0,0,0.01
2012-4-24,79.0,60.4,42.0,55.0,46.0,37.0,86,62,39,29.99,29.67,0,0,0,0.00
2012-4-25,92.0,73.3,55.0,68.0,58.9,51.0,88,64,36,29.70,29.57,0,0,0,0.00
2012-4-26,83.0,72.3,61.0,65.0,57.2,46.0,89,61,40,30.08,29.64,0,0,0,0.00
2012-4-27,60.0,53.8,46.0,46.0,36.9,26.0,64,53,42,30.21,29.94,0,0,0,0.00
2012-4-28,79.0,63.6,55.0,67.0,54.9,-99.9,93,76,59,30.06,29.87,0,0,0,1.26
2012-4-29,64.0,56.8,50.0,60.0,54.0,48.0,94,91,82,30.15,30.00,0,0,0,1.03
2012-4-30,72.0,66.5,62.0,65.0,61.7,58.0,92,85,71,30.03,29.97,0,0,0,0.08
2012-5-1,85.0,72.5,60.0,67.0,63.3,57.0,94,75,50,30.02,29.84,0,0,0,0.61
2012-5-2,91.0,80.9,71.0,68.0,64.8,63.0,78,60,41,29.98,29.85,0,0,0,0.61
2012-5-3,89.0,77.8,69.0,71.0,66.9,63.0,84,70,53,30.05,29.91,0,0,0,0.00
2012-5-4,84.0,74.3,67.0,73.0,67.6,62.0,91,80,65,30.08,29.88,0,0,0,0.21
2012-5-5,93.0,80.4,70.0,74.0,69.3,-99.9,92,73,49,29.95,29.88,0,0,0,0.09
2012-5-6,93.0,80.8,72.0,72.0,69.8,67.0,91,72,45,29.95,29.83,0,0,0,0.10
2012-5-7,73.0,67.7,60.0,69.0,63.9,57.0,93,88,75,29.98,29.86,0,0,0,1.32
2012-5-8,77.0,65.4,53.0,58.0,50.6,43.0,92,64,33,30.05,29.96,0,0,0,0.03
2012-5-9,72.0,60.6,49.0,51.0,48.2,46.0,91,67,43,30.06,29.97,0,0,0,0.00
2012-5-10,78.0,62.2,46.0,55.0,48.8,44.0,94,65,36,30.06,29.99,0,0,0,0.00
2012-5-11,77.0,66.3,54.0,55.0,49.8,45.0,75,57,40,30.19,30.06,0,0,0,0.00
2012-5-12,83.0,67.0,54.0,58.0,51.3,-99.9,90,62,34,30.26,30.17,0,0,0,0.00
2012-5-13,81.0,65.6,53.0,58.0,51.6,47.0,90,64,36,30.24,30.12,0,0,0,0.00
2012-5-14,82.0,64.6,47.0,52.0,47.1,43.0,91,58,27,30.18,30.07,0,0,0,0.00
2012-5-15,85.0,67.9,47.0,55.0,49.0,44.0,92,57,28,30.11,30.00,0,0,0,0.00
2012-5-16,81.0,68.8,56.0,58.0,51.8,46.0,84,57,34,30.09,30.00,0,0,0,0.00
2012-5-17,82.0,65.6,45.0,52.0,44.9,38.0,82,50,30,30.15,30.02,0,0,0,0.00
2012-5-18,89.0,72.9,55.0,63.0,54.9,46.0,74,56,32,30.07,29.95,0,0,0,0.00
2012-5-19,91.0,79.0,68.0,66.0,60.8,-99.9,75,56,40,30.07,29.98,0,0,0,0.00
2012-5-20,92.0,76.7,67.0,71.0,63.8,61.0,91,66,42,30.13,30.02,0,0,0,0.47
2012-5-21,76.0,66.1,55.0,65.0,53.5,50.0,91,66,45,30.21,30.12,0,0,0,0.13
2012-5-22,81.0,64.7,48.0,58.0,50.5,45.0,94,65,35,30.14,29.94,0,0,0,0.01
2012-5-23,85.0,71.4,53.0,58.0,52.5,47.0,84,54,34,29.95,29.75,0,0,0,0.00
2012-5-24,91.0,78.4,64.0,63.0,57.7,51.0,65,50,34,29.80,29.64,0,0,0,0.00
2012-5-25,91.0,82.3,71.0,72.0,68.0,62.0,84,63,52,30.03,29.81,0,0,0,0.00
2012-5-26,95.0,84.2,73.0,74.0,69.1,65.0,78,62,47,30.09,29.98,0,0,0,0.00
2012-5-27,94.0,83.7,72.0,69.0,65.0,62.0,73,55,38,30.06,29.91,0,0,0,0.00
2012-5-28,94.0,84.5,74.0,69.0,64.9,61.0,72,53,35,29.94,29.81,0,0,0,0.00
2012-5-29,93.0,79.1,66.0,69.0,60.2,56.0,79,55,32,29.97,29.82,0,0,0,0.00
2012-5-30,86.0,72.0,62.0,58.0,54.7,51.0,84,57,31,30.04,29.88,0,0,0,0.01
2012-5-31,70.0,61.9,53.0,63.0,53.0,47.0,91,74,53,29.93,29.80,0,0,0,0.11
2012-6-1,70.0,59.2,49.0,50.0,46.2,42.0,91,65,40,30.01,29.92,0,0,0,0.02
2012-6-2,81.0,64.5,50.0,56.0,50.1,-99.9,86,64,42,29.99,29.84,0,0,0,0.00
2012-6-3,89.0,72.3,53.0,63.0,57.3,50.0,91,63,36,29.96,29.84,0,0,0,0.00
2012-6-4,95.0,74.8,61.0,74.0,64.3,57.0,92,72,42,29.92,29.78,0,0,0,0.50
2012-6-5,85.0,71.7,56.0,61.0,56.4,53.0,93,62,36,30.01,29.92,0,0,0,0.01
2012-6-6,81.0,68.6,56.0,55.0,51.7,50.0,83,58,35,30.11,29.99,0,0,0,0.00
2012-6-7,85.0,69.8,52.0,61.0,52.7,48.0,92,59,33,30.18,30.09,0,0,0,0.00
2012-6-8,88.0,73.8,54.0,65.0,53.9,51.0,93,55,30,30.15,29.98,0,0,0,0.00
2012-6-9,92.0,79.0,63.0,65.0,57.6,-99.9,70,51,39,30.02,29.87,0,0,0,0.00
2012-6-10,89.0,79.3,70.0,69.0,64.1,58.0,75,60,49,29.97,29.88,0,0,0,0.00
2012-6-11,78.0,73.0,69.0,71.0,67.9,66.0,91,84,72,30.01,29.86,0,0,0,0.96
2012-6-12,84.0,72.2,59.0,66.0,56.4,48.0,94,63,29,30.17,30.00,0,0,0,0.01
2012-6-13,85.0,69.2,52.0,56.0,53.1,48.0,91,60,35,30.19,30.06,0,0,0,0.00
2012-6-14,89.0,74.8,55.0,61.0,56.7,51.0,89,57,36,30.11,29.97,0,0,0,0.00
2012-6-15,93.0,79.9,64.0,65.0,61.4,57.0,81,55,33,30.09,29.99,0,0,0,0.00
2012-6-16,88.0,78.8,74.0,71.0,65.2,61.0,74,63,55,30.12,30.04,0,0,0,0.00
2012-6-18,95.0,87.7,75.0,71.0,67.4,65.0,73,52,41,29.93,29.83,0,0,0,0.00
2012-6-19,93.0,84.6,76.0,71.0,67.8,62.0,73,58,45,30.03,29.93,0,0,0,0.00
2012-6-20,96.0,85.2,73.0,69.0,63.6,59.0,64,49,35,30.09,29.97,0,0,0,0.00
2012-6-21,88.0,80.2,67.0,69.0,65.0,60.0,79,60,51,30.06,29.98,0,0,0,0.00
2012-6-22,89.0,75.6,61.0,68.0,60.0,57.0,93,62,36,30.09,30.01,0,0,0,0.00
2012-6-23,91.0,76.8,61.0,63.0,58.6,53.0,87,57,37,30.08,29.95,0,0,0,0.00
2012-6-24,100.0,85.5,69.0,68.0,62.1,55.0,67,47,34,30.05,29.91,0,0,0,0.00
2012-6-25,92.0,83.0,69.0,71.0,63.4,49.0,73,52,36,30.01,29.90,0,0,0,0.00
2012-6-26,89.0,74.1,56.0,57.0,53.3,49.0,84,51,31,30.06,29.93,0,0,0,0.00
2012-6-27,100.0,82.2,63.0,62.0,55.6,50.0,67,42,27,30.04,29.90,0,0,0,0.00
2012-6-28,110.0,91.7,73.0,63.0,58.8,55.0,55,35,18,29.99,29.91,0,0,0,0.00
2012-6-29,108.0,90.4,70.0,70.0,64.8,58.0,77,45,27,29.98,29.82,0,0,0,0.00
2012-6-30,107.0,92.3,75.0,72.0,67.2,63.0,85,47,27,29.93,29.83,0,0,0,0.00
2012-7-1,104.0,88.3,73.0,73.0,68.3,65.0,79,54,33,30.04,29.90,0,0,0,0.00
2012-7-2,101.0,84.6,74.0,74.0,68.4,63.0,79,60,37,30.03,29.96,0,0,0,0.00
2012-7-3,102.0,87.3,71.0,74.0,69.5,65.0,83,59,34,30.03,29.88,0,0,0,0.00
2012-7-4,106.0,92.6,81.0,73.0,67.2,62.0,67,46,26,30.02,29.91,0,0,0,0.00
2012-7-5,108.0,92.8,76.0,73.0,67.8,65.0,72,47,27,30.04,29.95,0,0,0,0.00
2012-7-6,108.0,93.9,78.0,76.0,69.8,68.0,78,49,28,30.03,29.95,0,0,0,0.00
2012-7-7,109.0,91.6,78.0,76.0,70.7,67.0,81,54,28,30.05,29.93,0,0,1,0.05
2012-7-8,99.0,84.9,73.0,78.0,73.1,68.0,92,70,47,30.07,29.94,0,0,0,0.65
2012-7-9,94.0,82.0,72.0,73.0,69.1,66.0,92,68,42,30.08,29.99,0,0,0,0.64
2012-7-13,95.0,84.3,71.0,72.0,68.2,65.0,84,61,40,30.09,30.01,0,0,0,0.00
2012-7-14,93.0,80.3,71.0,73.0,69.6,66.0,87,71,51,30.13,30.02,0,0,0,0.03
2012-7-15,97.0,84.4,70.0,73.0,69.5,66.0,90,64,40,30.17,30.02,0,0,0,0.03
2012-7-16,98.0,88.0,77.0,73.0,71.7,70.0,83,60,43,30.09,29.91,0,0,0,0.00
2012-7-17,103.0,90.4,80.0,74.0,71.8,69.0,74,56,35,29.98,29.88,0,0,0,0.00
2012-7-18,107.0,92.6,79.0,74.0,71.0,67.0,74,52,29,30.00,29.87,0,0,0,0.00
2012-7-19,104.0,91.7,83.0,74.0,70.5,68.0,69,52,34,30.01,29.86,0,0,0,0.00
2012-7-20,87.0,80.3,72.0,72.0,68.8,65.0,84,69,55,30.09,29.96,0,0,0,0.00
2012-7-21,97.0,81.1,66.0,71.0,64.5,62.0,92,61,34,30.16,30.05,0,0,0,0.00
2012-7-22,100.0,87.8,74.0,68.0,63.6,59.0,66,46,30,30.16,30.05,0,0,0,0.00
2012-7-23,107.0,93.3,80.0,74.0,69.8,65.0,71,49,30,30.13,29.99,0,0,0,0.00
2012-7-24,107.0,95.4,84.0,73.0,69.9,67.0,59,45,30,30.04,29.87,0,0,0,0.00
2012-7-25,107.0,95.3,84.0,73.0,68.8,66.0,61,44,28,29.93,29.74,0,0,0,0.00
2012-7-26,95.0,88.3,77.0,73.0,70.1,68.0,74,56,43,29.91,29.75,0,0,0,0.00
2012-7-27,100.0,86.4,74.0,72.0,66.6,60.0,86,56,28,30.05,29.90,0,0,0,0.00
2012-7-28,96.0,80.8,65.0,66.0,62.1,59.0,86,56,33,30.17,30.05,0,0,0,0.00
2012-7-29,86.0,76.4,70.0,72.0,67.5,61.0,91,75,62,30.17,29.97,0,0,0,0.00
2012-7-30,88.0,79.8,73.0,73.0,70.4,68.0,88,74,60,29.97,29.90,0,0,0,0.00
2012-7-31,104.0,85.3,69.0,74.0,69.0,66.0,94,64,31,30.02,29.89,0,0,0,0.00
2012-8-1,102.0,88.3,74.0,72.0,67.0,57.0,81,52,30,29.98,29.86,0,0,0,0.00
2012-8-2,97.0,83.9,77.0,79.0,68.5,57.0,83,61,42,29.91,29.77,0,0,0,0.07
2012-8-3,100.0,86.7,74.0,77.0,74.1,69.0,88,68,48,29.87,29.81,0,0,0,0.07
2012-8-4,97.0,84.4,75.0,78.0,74.0,70.0,90,72,47,30.00,29.85,0,0,28,0.66
2012-8-5,93.0,80.3,71.0,72.0,66.0,60.0,91,66,36,30.19,29.99,0,0,0,0.38
2012-8-6,96.0,79.4,63.0,65.0,61.6,59.0,89,59,31,30.19,30.03,0,0,0,0.00
2012-8-7,99.0,82.2,63.0,66.0,61.8,59.0,91,55,30,30.06,29.97,0,0,0,0.00
2012-8-8,102.0,84.7,68.0,70.0,63.6,59.0,88,51,31,30.07,29.91,0,0,0,0.64
2012-8-9,94.0,80.3,68.0,71.0,67.3,64.0,92,68,41,30.01,29.81,0,0,2,0.75
2012-8-10,81.0,73.3,66.0,65.0,60.7,57.0,84,66,48,30.03,29.89,0,0,0,0.01
2012-8-11,89.0,71.3,56.0,61.0,54.3,-99.9,92,61,31,30.10,30.00,0,0,0,0.00
2012-8-12,83.0,69.6,59.0,65.0,57.6,54.0,83,67,47,30.07,29.92,0,0,0,0.00
2012-8-13,81.0,72.7,65.0,67.0,63.2,57.0,87,73,54,30.03,29.87,0,0,0,0.17
2012-8-14,81.0,72.5,61.0,64.0,61.7,57.0,91,70,53,30.07,29.98,0,0,0,0.00
2012-8-15,92.0,75.0,59.0,65.0,60.9,56.0,92,66,37,30.06,29.91,0,0,0,0.00
2012-8-16,98.0,79.6,69.0,77.0,68.3,62.0,91,70,46,30.03,29.81,0,0,0,0.34
2012-8-17,83.0,70.2,58.0,63.0,55.5,51.0,90,64,33,30.11,30.02,0,0,0,0.34
2012-8-18,85.0,69.4,53.0,63.0,52.9,50.0,92,61,31,30.07,29.95,0,0,0,0.00
2012-8-19,86.0,72.7,60.0,60.0,54.7,47.0,83,57,32,30.02,29.96,0,0,0,0.00
2012-8-20,88.0,69.9,54.0,59.0,54.0,51.0,92,62,30,30.05,29.98,0,0,0,0.00
2012-8-21,91.0,73.9,58.0,62.0,56.3,53.0,88,59,31,30.09,30.02,0,0,0,0.00
2012-8-22,97.0,80.4,62.0,62.0,57.0,54.0,82,48,27,30.11,30.03,0,0,0,0.00
2012-8-23,100.0,83.7,64.0,62.0,57.8,54.0,74,45,26,30.13,30.01,0,0,0,0.00
2012-8-31,79.0,76.9,74.0,76.0,72.6,70.0,94,87,74,30.09,29.93,0,0,0,0.00
2012-9-1,81.0,75.8,73.0,75.0,72.6,71.0,94,90,78,29.91,29.80,0,0,0,0.00
2012-9-2,82.0,76.3,73.0,76.0,72.9,71.0,95,90,76,29.88,29.80,0,0,0,0.00
2012-9-5,85.0,78.1,70.0,75.0,72.1,68.0,93,82,70,29.92,29.85,0,0,0,0.00
2012-9-6,92.0,77.4,66.0,77.0,69.9,61.0,95,79,56,30.01,29.91,0,0,0,0.01
2012-9-7,93.0,75.2,64.0,74.0,66.4,61.0,92,76,52,29.95,29.68,0,0,0,0.01
2012-9-8,75.0,65.9,58.0,63.0,54.2,50.0,90,68,45,30.08,29.95,0,0,0,0.00
2012-9-9,78.0,65.2,54.0,55.0,53.3,50.0,89,67,44,30.19,29.98,0,0,0,0.00
2012-9-10,81.0,65.7,51.0,60.0,53.7,48.0,94,69,42,30.27,30.14,0,0,0,0.00
2012-9-11,85.0,72.3,57.0,62.0,58.1,53.0,89,63,42,30.22,30.11,0,0,0,0.00
2012-9-12,86.0,74.3,63.0,63.0,59.6,57.0,80,62,41,30.23,30.13,0,0,0,0.00
2012-9-13,88.0,72.4,61.0,69.0,60.0,54.0,85,67,41,30.35,30.18,0,0,0,0.00
2012-9-14,69.0,61.1,57.0,59.0,56.1,53.0,93,84,66,30.39,30.32,0,0,0,0.00
2012-9-15,69.0,60.8,52.0,57.0,53.1,50.0,93,77,57,30.34,30.18,0,0,0,0.01
2012-9-16,73.0,66.3,58.0,65.0,60.3,55.0,91,82,70,30.18,30.03,0,0,0,0.01
2012-9-17,76.0,68.4,62.0,69.0,65.2,59.0,94,89,76,30.03,29.82,0,0,0,0.57
2012-9-18,69.0,58.8,47.0,59.0,47.6,42.0,92,70,40,30.12,29.90,0,0,0,0.50
2012-9-19,76.0,61.3,44.0,53.0,47.5,42.0,92,64,40,30.18,29.98,0,0,0,0.00
2012-9-20,80.0,67.5,51.0,56.0,48.8,41.0,81,54,26,30.05,29.97,0,0,0,0.00
2012-9-21,83.0,67.9,51.0,64.0,52.8,46.0,86,60,39,30.05,29.73,0,0,0,0.00
2012-9-22,70.0,58.2,45.0,54.0,42.0,-99.9,91,61,28,30.28,29.95,0,0,0,0.00
2012-9-23,69.0,52.7,38.0,51.0,39.8,35.0,93,66,34,30.37,30.27,0,0,0,0.00
2012-9-24,72.0,52.3,40.0,47.0,40.9,37.0,91,70,36,30.30,30.13,0,0,0,0.00
2012-9-30,74.0,60.6,51.0,56.0,52.8,49.0,94,78,50,30.04,29.89,0,0,0,0.00
2012-10-1,66.0,58.4,53.0,53.0,49.6,47.0,87,73,57,29.89,29.80,0,0,0,0.00
2012-10-2,73.0,58.9,45.0,56.0,49.7,43.0,93,74,48,29.94,29.83,0,0,0,0.00
2012-10-3,77.0,65.4,57.0,59.0,55.3,51.0,87,72,40,30.09,29.92,0,0,0,0.01
2012-10-4,82.0,67.7,55.0,61.0,55.9,47.0,88,68,47,30.24,30.09,0,0,0,0.01
2012-10-5,55.0,47.6,41.0,47.0,43.2,37.0,91,85,72,30.28,30.20,0,0,0,0.59
2012-10-6,52.0,43.9,38.0,37.0,34.7,33.0,88,71,53,30.30,30.24,0,0,0,0.09
2012-10-7,55.0,44.7,35.0,37.0,33.2,30.0,88,66,40,30.33,30.21,0,0,0,0.00
2012-10-8,61.0,47.4,34.0,41.0,35.5,31.0,92,67,39,30.26,30.09,0,0,0,0.00
2012-10-9,68.0,55.7,44.0,47.0,43.1,37.0,84,64,45,30.12,29.95,0,0,0,0.00
2012-10-10,59.0,48.6,39.0,45.0,36.9,32.0,89,67,38,30.34,30.06,0,0,0,0.04
2012-10-11,65.0,53.5,39.0,50.0,39.7,32.0,85,60,45,30.29,30.16,0,0,0,0.01
2012-10-12,66.0,56.8,48.0,52.0,48.4,40.0,90,74,56,30.41,30.22,0,0,0,0.00
2012-10-13,77.0,65.6,55.0,65.0,59.1,50.0,92,80,65,30.26,29.82,0,0,0,0.00
2012-10-14,73.0,64.4,51.0,65.0,58.3,47.0,94,81,58,30.00,29.70,0,0,0,0.00
2012-10-15,70.0,55.9,44.0,51.0,46.3,42.0,93,73,42,30.07,29.98,0,0,0,0.00
2012-10-16,83.0,66.6,53.0,56.0,49.5,45.0,81,57,32,29.99,29.65,0,0,0,0.00
2012-10-17,67.0,62.1,54.0,61.0,54.3,48.0,92,77,54,29.69,29.42,0,0,0,0.00
2012-10-18,62.0,54.6,47.0,51.0,39.5,35.0,88,59,37,29.67,29.61,0,0,0,0.00
2012-10-19,54.0,50.6,47.0,45.0,43.1,41.0,88,76,66,29.85,29.59,0,0,0,0.00
2012-10-20,65.0,54.7,49.0,48.0,45.2,43.0,82,72,52,29.96,29.83,0,0,0,0.00
2012-10-21,79.0,64.4,50.0,63.0,54.0,45.0,83,70,51,29.99,29.91,0,0,0,0.00
2012-10-22,74.0,69.2,64.0,67.0,62.8,57.0,87,80,70,29.98,29.93,0,0,0,0.13
2012-10-23,78.0,70.0,64.0,67.0,62.3,58.0,93,77,61,30.01,29.89,0,0,0,0.44
2012-10-24,84.0,73.3,65.0,68.0,62.7,59.0,84,70,56,30.01,29.90,0,0,0,0.00
2012-10-25,82.0,65.1,45.0,65.0,56.9,41.0,90,76,55,30.22,29.81,0,0,0,0.00
2012-10-26,51.0,44.4,39.0,41.0,33.5,30.0,82,66,50,30.40,30.21,0,0,0,0.00
2012-10-27,52.0,41.2,33.0,35.0,31.1,28.0,85,68,49,30.38,30.26,0,0,0,0.00
2012-10-28,52.0,40.6,31.0,35.0,31.8,27.0,88,72,52,30.32,30.26,0,0,0,0.00
2012-10-29,55.0,37.8,28.0,39.0,30.6,25.0,92,78,41,30.37,30.27,0,0,0,0.00
2012-11-10,66.0,65.2,64.0,53.0,52.3,51.0,66,63,61,29.99,29.95,0,0,0,0.00
2012-11-11,68.0,58.7,38.0,59.0,51.3,34.0,93,77,63,30.15,29.82,0,0,0,0.00
2012-11-12,45.0,37.4,30.0,36.0,25.6,21.0,91,63,42,30.48,30.15,0,0,0,0.00
2012-11-13,50.0,37.5,25.0,34.0,25.1,22.0,90,64,35,30.58,30.48,0,0,0,0.00
2012-11-14,51.0,38.2,30.0,30.0,26.3,-99.9,82,65,38,30.55,30.40,0,0,0,0.00
2012-11-15,55.0,39.4,28.0,38.0,29.4,24.0,90,70,38,30.44,30.36,0,0,0,0.00
2012-11-16,59.0,42.7,29.0,42.0,32.0,26.0,92,69,41,30.50,30.42,0,0,0,0.00
2012-11-17,59.0,43.3,30.0,37.0,32.2,26.0,89,67,36,30.56,30.43,0,0,0,0.00
2012-11-18,62.0,46.6,31.0,40.0,33.5,27.0,90,63,36,30.45,30.31,0,0,0,0.00
2012-11-19,58.0,51.1,44.0,43.0,39.4,35.0,83,64,56,30.34,30.16,0,0,0,0.00
2012-11-20,60.0,49.1,42.0,48.0,43.2,38.0,92,81,62,30.25,30.12,0,0,0,0.00
2012-11-21,63.0,49.8,40.0,55.0,45.1,38.0,94,85,60,30.33,30.19,0,0,0,0.00
2012-11-22,69.0,57.1,47.0,53.0,47.1,42.0,89,72,46,30.19,29.96,0,0,0,0.00
2012-11-23,55.0,41.0,30.0,45.0,28.4,19.0,76,61,45,30.40,30.12,0,0,0,0.00
2012-11-24,39.0,31.2,24.0,24.0,19.8,16.0,72,62,49,30.40,30.06,0,0,0,0.00
2012-11-25,56.0,43.5,33.0,33.0,27.5,23.0,82,54,40,30.11,29.95,0,0,0,0.00
2012-11-26,44.0,36.4,30.0,31.0,27.4,20.0,92,71,55,30.44,30.10,0,0,0,0.00
2012-11-27,39.0,29.6,20.0,24.0,20.0,15.0,82,68,50,30.51,30.36,0,0,0,0.00
2012-11-28,51.0,36.3,23.0,31.0,25.3,18.0,85,66,46,30.50,30.34,0,0,0,0.00
2012-11-29,62.0,47.2,35.0,38.0,32.6,27.0,80,59,39,30.35,30.12,0,0,0,0.00
2012-11-30,66.0,54.8,46.0,46.0,39.8,33.0,70,57,47,30.17,30.09,0,0,0,0.00
2012-12-1,67.0,56.6,48.0,56.0,49.5,41.0,90,78,66,30.16,29.98,0,0,0,0.00
2012-12-2,74.0,65.8,62.0,61.0,57.7,54.0,89,76,61,30.07,29.98,0,0,0,0.00
2012-12-3,74.0,66.5,61.0,62.0,58.8,56.0,91,77,59,30.05,29.89,0,0,0,0.00
2012-12-4,65.0,50.6,36.0,58.0,44.9,33.0,92,81,59,30.35,29.97,0,0,0,0.33
2012-12-5,56.0,42.9,32.0,44.0,35.7,30.0,94,77,53,30.42,30.19,0,0,0,0.01
2012-12-6,54.0,45.5,39.0,42.0,36.2,-99.9,83,73,62,30.19,29.96,0,0,0,0.01
2012-12-7,56.0,50.9,47.0,52.0,47.0,42.0,91,87,80,29.97,29.85,0,0,0,0.07
2012-12-8,49.0,45.2,43.0,47.0,42.5,39.0,93,90,84,30.04,29.91,0,0,0,0.40
2012-12-9,50.0,45.4,38.0,48.0,42.7,30.0,94,90,77,29.99,29.82,0,0,0,0.35
2012-12-10,36.0,29.3,26.0,30.0,22.0,19.0,80,74,68,30.11,29.93,0,0,0,0.06
2012-12-11,41.0,29.4,21.0,24.0,20.6,17.0,87,72,46,30.26,30.11,0,0,0,0.00
2012-12-12,51.0,36.8,23.0,28.0,24.0,18.0,84,62,35,30.38,30.26,0,0,0,0.00
2012-12-13,56.0,42.1,32.0,30.0,26.4,23.0,73,56,31,30.35,30.21,0,0,0,0.00
2012-12-14,58.0,44.5,32.0,39.0,30.8,24.0,81,60,36,30.26,30.00,0,0,0,0.00
2012-12-15,64.0,51.1,43.0,50.0,45.3,39.0,92,81,59,30.00,29.62,0,0,0,0.00
2012-12-16,54.0,45.7,37.0,45.0,40.6,34.0,91,83,70,29.80,29.69,0,0,0,0.00
2012-12-17,41.0,39.7,37.0,39.0,37.0,32.0,92,90,83,29.85,29.72,0,0,0,0.00
2012-12-18,59.0,45.1,33.0,39.0,35.0,29.0,90,70,46,29.96,29.70,0,0,0,0.00
2012-12-19,50.0,39.6,29.0,47.0,34.7,25.0,90,83,75,30.05,29.56,0,0,0,0.00
2012-12-20,55.0,39.9,28.0,53.0,34.9,19.0,93,82,71,30.01,29.28,0,0,0,0.06
2012-12-21,35.0,29.2,25.0,19.0,17.3,15.0,72,61,49,30.35,30.01,0,0,0,0.00
2012-12-22,48.0,33.1,19.0,28.0,20.9,14.0,87,63,41,30.35,29.98,0,0,0,0.00
2012-12-23,50.0,39.2,29.0,34.0,28.8,23.0,85,67,48,30.01,29.91,0,0,0,0.00
2012-12-24,34.0,29.1,23.0,31.0,24.8,16.0,92,84,74,30.18,29.86,0,0,0,0.00
2012-12-25,34.0,28.2,23.0,27.0,22.5,16.0,85,79,71,30.31,30.04,0,0,0,0.00
2012-12-26,32.0,29.6,28.0,25.0,23.3,21.0,83,77,72,30.22,29.97,0,0,0,0.00
2012-12-27,35.0,30.2,27.0,24.0,23.1,21.0,81,75,63,30.25,30.10,0,0,0,0.00
2012-12-28,36.0,32.7,30.0,30.0,27.8,24.0,90,82,75,30.11,29.94,0,0,0,0.00
2012-12-29,33.0,28.4,19.0,30.0,22.7,15.0,92,79,66,30.38,29.96,0,0,0,0.00
2012-12-30,42.0,30.5,19.0,29.0,22.3,15.0,86,72,52,30.47,30.24,0,0,0,0.00
2012-12-31,38.0,35.0,33.0,32.0,28.3,23.0,92,78,59,30.26,30.12,0,0,0,0.00
2013-1-1,32.0,23.5,17.0,30.0,18.4,11.0,92,81,69,30.32,30.16,0,0,0,0.00